Location: Shenandoah County Park
(38.9356°N, 78.4524°W)
Time: 13:26:54
(UTC-04:00)

SR - Visible Passes

Search period start: 23 July 2024 00:00
Search period end: 02 August 2024 00:00
Orbit: 581 x 856 km, 66.7° (Epoch: 22 July)

Date Brightness Start Highest point End Pass type
(mag) Time Alt. Az. Time Alt. Az. Time Alt. Az.
23 Jul ? 03:04:04 40° E 03:04:04 40° E 03:07:49 10° NE visible
23 Jul ? 04:43:17 14° W 04:45:35 20° NW 04:48:52 10° N visible
24 Jul ? 02:13:00 15° E 02:13:00 15° E 02:14:19 10° ENE visible
24 Jul ? 03:52:13 41° W 03:52:52 44° WNW 03:57:03 10° NNE visible
25 Jul ? 03:01:06 59° NE 03:01:06 59° NE 03:04:43 10° NNE visible
25 Jul ? 04:40:43 10° WNW 04:42:36 12° NW 04:44:27 10° NNW visible
26 Jul ? 02:09:57 21° ENE 02:09:57 21° ENE 02:11:49 10° NE visible
26 Jul ? 03:49:09 25° WNW 03:49:42 25° NW 03:53:21 10° N visible
27 Jul ? 02:57:57 47° NNW 02:57:57 47° NNW 03:01:20 10° NNE visible
28 Jul ? 02:06:43 27° NE 02:06:43 27° NE 02:08:49 10° NE visible
28 Jul ? 03:45:55 15° WNW 03:46:38 15° NW 03:49:14 10° N visible
29 Jul ? 01:15:27 11° ENE 01:15:27 11° ENE 01:15:40 10° ENE visible
29 Jul ? 02:54:39 29° NNW 02:54:39 29° NNW 02:57:42 10° N visible
30 Jul ? 02:03:20 29° NNE 02:03:20 29° NNE 02:05:30 10° NNE visible
31 Jul ? 01:12:00 15° NE 01:12:00 15° NE 01:12:48 10° NE visible
31 Jul ? 02:51:11 19° NW 02:51:11 19° NW 02:53:45 10° N visible
01 Aug ? 01:59:48 26° N 01:59:48 26° N 02:01:57 10° NNE visible
